Regional Weather Roundup
Issued by NWS

Home | Current Version | Previous Version | Graphics & Text | Print | Product List | Glossary On
Versions: 1 2 3 4 5 6 7 8 9 10 11 12 13 14 15 16 17 18 19 20 21 22 23 24 25 26 27 28 29 30 31 32 33 34 35 36 37 38 39 40 41 42 43 44 45 46 47 48 49 50
000
ASUS43 KMPX 060210
RWRMN
WEATHER ROUNDUP FOR MINNESOTA
NATIONAL WEATHER SERVICE TWIN CITIES/CHANHASSEN MN
800 PM CST THU MAR 05 2015


NOTE: "FAIR" INDICATES FEW OR NO CLOUDS BELOW 12,000 FEET WITH NO
SIGNIFICANT WEATHER AND/OR OBSTRUCTIONS TO VISIBILITY. N/A MEANS
CURRENT SKY AND/OR WEATHER CONDITIONS ARE NOT AVAILABLE.

MNZ060>063-068>070-060300-
   Twin Cities Metro

CITY           SKY/WX    TMP DP  RH WIND       PRES   REMARKS
TWIN CITIES    CLEAR     13   0  56 S10       30.38F WCI   0
ST PAUL        PTCLDY    10   1  67 S8        30.40F WCI  -2
CRYSTAL        PTCLDY    12   1  61 S7        30.36F WCI   1
BLAINE         CLEAR     10   1  67 S6        30.35F WCI   1
LAKEVILLE        N/A      7   0  72 S5        30.38F WCI  -2
EDEN PRAIRIE   CLEAR     10   0  63 S9        30.36F WCI  -3
SOUTH ST PAUL  PTCLDY    12   1  63 S3        30.39S
LAKE ELMO      FAIR       9   1  72 S7        30.38F WCI  -3
$$
MNZ001>005-007-008-013>017-022>024-027-028-060300-
   Northwest Minnesota

CITY           SKY/WX    TMP DP  RH WIND       PRES   REMARKS
BEMIDJI        CLEAR     11  -1  57 S12       30.14F WCI  -3
HALLOCK        CLEAR     18  10  73 S24       30.01F WCI   0
ROSEAU         CLEAR     16   7  67 S21       30.03F WCI  -2
WARROAD        CLEAR     14   5  67 S15G22    30.03F WCI  -1
THIEF RVR FALL CLEAR     14   7  73 S18       30.08F WCI  -3
CROOKSTON      CLEAR     18   9  68 S18       30.11F WCI   2
FOSSTON        CLEAR     10   3  72 S20G25    30.12F WCI  -8
DETROIT LAKES  CLEAR     12   5  73 S8        30.17F WCI   1
MOORHEAD       CLEAR     16  10  79 S16       30.17F WCI   0
PARK RAPIDS    CLEAR      9  -2  61 S8        30.17F WCI  -3
MAHNOMEN       FAIR      13   4  70 S15       30.13F WCI  -3
$$
MNZ006-009>011-018-025>026-060300-
   North Central Minnesota

CITY           SKY/WX    TMP DP  RH WIND       PRES   REMARKS
BAUDETTE       CLEAR     14   1  56 SW17G25   30.04F WCI  -3
FLAG ISLAND    CLEAR     12   3  67 S16       30.00F WCI  -4
INTL FALLS     PTCLDY    11  -5  48 S9G20     30.10F WCI  -2
WASKISH        FAIR      14  -2  48 S9        30.11F WCI   2
BIG FORK       CLEAR     10  -6  48 S9        30.15F WCI  -2
LONGVILLE      CLEAR      9  -4  56 S8        30.20F WCI  -4
GRAND RAPIDS   CLEAR      9  -6  52 S13       30.19S WCI  -7
CRANE LAKE     CLEAR     10  -9  40 S6        30.16F WCI   1
ORR            CLEAR      9  -9  43 CALM      30.12F
COOK           CLEAR      9  -8  47 S9G16     30.16F WCI  -5
WALKER         FAIR      10  -3  55 S8        30.17F WCI  -2
$$
MNZ012-019>021-037-060300-
   Northeast Minnesota

CITY           SKY/WX    TMP DP  RH WIND       PRES   REMARKS
DULUTH         CLEAR      8  -6  52 SW13      30.23F WCI  -8
ELY            CLEAR      7  -8  51 SW8       30.17S WCI  -6
HIBBING        CLEAR      7  -7  52 SW8       30.20S WCI  -6
EVELETH        CLEAR      9  -6  52 SW9       30.21S WCI  -5
DULUTH HARBOR  CLEAR     10  -4  52 SW13      30.32F WCI  -5
TWO HARBORS    CLEAR     10  -2  56 SW9       30.23F WCI  -2
SILVER BAY     CLEAR     10  -6  48 SW5       30.21F WCI   2
GRAND MARAIS     N/A     14  -5  42 W10G17    30.24S WCI   1
G MARAIS ARPRT PTCLDY     3 -13  47 SW5       30.13F WCI  -6
$$
MNZ029>031-032-039>041-046>048-054>057-064-060300-
   West Central Minnesota

CITY           SKY/WX    TMP DP  RH WIND       PRES   REMARKS
FERGUS FALLS   CLEAR     12   3  67 S15       30.23F WCI  -4
WHEATON        CLEAR     10   5  79 SE16      30.21F WCI  -7
MORRIS         CLEAR     10   3  72 SE10      30.22F WCI  -3
ALEXANDRIA     PTCLDY    12   2  64 S10       30.22F WCI  -1
ELBOW LAKE     FAIR      12   5  73 S14       30.20F WCI  -3
WADENA         CLEAR      7   0  72 S8        30.20F WCI  -6
GLENWOOD       PTCLDY    10   1  67 S9        30.24F WCI  -2
APPLETON       CLEAR     16   7  67 SE8       30.24F WCI   5
BENSON         CLEAR     16   7  67 S8        30.25F WCI   5
ORTONVILLE     CLEAR     12   7  79 SE9       30.22F WCI   0
MADISON        CLEAR     18   9  68 SE13      30.24F WCI   4
WILLMAR        FAIR      12   3  67 SE6       30.29F WCI   3
$$
MNZ033>034-036-042>043-049>051-058-059-060300-
   Central Minnesota

CITY           SKY/WX    TMP DP  RH WIND       PRES   REMARKS
ST CLOUD       CLEAR      3  -3  76 SE6       30.31F WCI  -8
SAUK CENTRE    FAIR       6   0  77 S9        30.26F WCI  -8
PAYNESVILLE    CLEAR     10   2  70 SE5       30.29F WCI   2
AITKIN         PTCLDY    10  -2  56 S9        30.24F WCI  -2
PINE RIVER     CLEAR      7  -2  66 S6        30.25F WCI  -3
BRAINERD       CLEAR      5  -4  66 S9        30.25F WCI  -9
STAPLES        CLEAR      7   0  72 S6        30.23F WCI  -3
LONG PRAIRIE   FAIR       9   1  72 SE10      30.24F WCI  -6
LITTLE FALLS   CLEAR      7   0  72 SE6       30.28F WCI  -3
LITCHFIELD     CLEAR     12   3  67 CALM      30.31F
BUFFALO        CLEAR     10   1  67 SE5       30.34F WCI   2
MAPLE LAKE     CLEAR      9   3  77 SE5       30.33F WCI   1
$$
MNZ037-044-045-052-053-060300-
   East Central Minnesota

CITY           SKY/WX    TMP DP  RH WIND       PRES   REMARKS
PRINCETON      PTCLDY     7   0  72 CALM      30.32F
MORA           PTCLDY     7  -4  61 S3        30.34F
CAMBRIDGE      PTCLDY     3  -6  66 CALM      30.33F
RUSH CITY      PTCLDY     4  -5  66 S3        30.35F
MOOSE LAKE     PTCLDY     9  -4  56 S8        30.28S WCI  -4
HINCKLEY       FAIR       5  -4  66 S5        30.32F WCI  -4
CLOQUET        FAIR       9  -6  52 S9        30.24F WCI  -5
MCGREGOR       PTCLDY     7  -4  61 S7        30.26F WCI  -5
$$
MNZ071>073-080-081-089-090-097-098-060300-
   Southwest Minnesota

CITY           SKY/WX    TMP DP  RH WIND       PRES   REMARKS
MONTEVIDEO     CLEAR     14   7  73 S8        30.27F WCI   3
GRANITE FALLS  CLEAR     16   7  67 SE8       30.29F WCI   5
CANBY          CLEAR     13   7  76 SE9       30.23F WCI   1
MARSHALL       CLEAR     14   3  62 SE9       30.26F WCI   2
REDWOOD FALLS  CLEAR     15   5  64 SE14      30.30F WCI   0
OLIVIA         CLEAR     10   3  72 SE8       30.29F WCI  -1
PIPESTONE      PTCLDY    19   7  58 S12       30.22F WCI   7
WINDOM         CLEAR     16   7  67 S8        30.29F WCI   5
WORTHINGTON    CLEAR     16   3  57 S14       30.29F WCI   1
JACKSON        CLEAR     18   5  57 S13       30.31F WCI   4
TRACY          CLEAR     20   8  59 S15       30.25F WCI   6
SLAYTON        CLEAR     13   5  69 CALM      30.25F
$$
MNZ065>067-074>077-082>085-091>093-060300-
   South Central Minnesota

CITY           SKY/WX    TMP DP  RH WIND       PRES   REMARKS
MANKATO        CLEAR     12   0  57 S8        30.36F WCI   1
NEW ULM        CLEAR     14   3  62 S10       30.33F WCI   1
ST JAMES       CLEAR     16   5  62 SE10      30.35F WCI   3
FAIRMONT       CLEAR     12   3  67 S10       30.33F WCI  -1
GLENCOE        CLEAR     13   6  73 S6        30.33F WCI   4
FARIBAULT      CLEAR     10   1  67 S6        30.38F WCI   1
OWATONNA       CLEAR     10   1  67 S13       30.38F WCI  -5
WASECA         CLEAR     12   5  73 S13       30.39F WCI  -3
ALBERT LEA     PTCLDY     9   1  72 S8        30.39F WCI  -4
$$
MNZ078>079-086>088-094>096-060300-
   Southeast Minnesota

CITY           SKY/WX    TMP DP  RH WIND       PRES   REMARKS
ROCHESTER      MOCLDY     1  -6  72 S10       30.40F WCI -15
RED WING       MOCLDY     9   0  66 S9        30.41F WCI  -5
STANTON        PTCLDY    10   1  67 S7        30.38F WCI  -1
DODGE CENTER   PTCLDY     3  -2  78 S10       30.38F WCI -12
WINONA         PTCLDY    10   1  67 CALM      30.48S
AUSTIN         PTCLDY     3  -2  78 S9        30.40F WCI -11
PRESTON        MOCLDY     2  -5  73 S10       30.42F WCI -14
$$
ABBREVIATIONS USED IN REMARKS
   TC - TEMPERATURES IN CELSIUS
  WCI - WIND CHILL INDEX
   HX - HEAT INDEX
  VSB - VISIBILITY
$$



USA.gov is the U.S. government's official web portal to all federal, state and local government web resources and services.